Terminal Aerodrome Forecast
Issued by NWS Paducah, KY

Home | Current Version | Previous Version | Text Only | Print | Product List | Glossary On
Versions: 1 2 3 4 5 6 7 8 9 10 11 12 13 14 15 16 17 18 19 20 21 22 23 24 25
000
FTUS43 KPAH 031120
TAFEVV
TAF
KEVV 031120Z 0312/0412 16005KT P6SM OVC025
     FM031400 19008KT P6SM VCSH OVC015
     FM031700 19009KT 6SM -SHRA OVC008
     FM032000 21012G21KT 5SM -RA BR OVC005
     FM040000 23008KT 3SM -RA BR OVC004
     FM040600 32010KT 2SM -RA BR OVC003
     FM041100 35010G17KT 3SM -SN BR OVC003=

USA.gov is the U.S. government's official web portal to all federal, state and local government web resources and services.